Weather History for KNBT - October, 2012

Change the Weather History Date:

Wednesday, October 10, 2012

  Actual Average (KMRH) Record (KMRH)
Temperature  
Mean Temperature 65 °F -  
Max Temperature 70 °F 77 °F 87 °F (1959)
Min Temperature 60 °F 57 °F 43 °F (2000)
Growing Degree Days 15 (Base 50)    
Moisture  
Dew Point 56 °F    
Average Humidity 78    
Maximum Humidity 94    
Minimum Humidity 55    
Precipitation  
Precipitation 0.00 in - - ()
Sea Level Pressure  
Sea Level Pressure 30.05 in    
Wind  
Wind Speed 7 mph (West)    
Max Wind Speed 10 mph    
Max Gust Speed -    
Visibility 10 miles    
Events Rain    
Averages and records for this station are not official NWS values.
T = Trace of Precipitation, MM = Missing Value Source: NWS Daily Summary

Daily Weather History Graph

Daily Weather History Graph

Search for Another Location

Airport or City:

Trip Planner

Search our weather history database for the weather conditions in past years. The results will help you decide how hot, cold, wet, or windy it might be!

Date:

Astronomy

Oct. 10, 2012 Rise Set
Actual Time 7:08 AM EDT 6:36 PM EDT
Civil Twilight 6:42 AM EDT 7:02 PM EDT
Nautical Twilight 6:13 AM EDT 7:31 PM EDT
Astronomical Twilight 5:43 AM EDT 8:00 PM EDT
Moon 1:53 AM EDT (10/10) 3:28 PM EDT (10/10)
Length of Visible Light 12h 19m
Length of Day
11h 28m
Waning Crescent, 27% of the Moon is Illuminated
Oct 10
Waning Crescent
Oct 15
New
Oct 21
First Quarter
Oct 29
Full
Nov 6
Last Quarter

Hourly Weather History & Observations

Time (EDT) Temp. Dew Point Humidity Pressure Visibility Wind Dir Wind Speed Gust Speed Precip Events Conditions
12:56 AM 61.0 °F 59.0 °F 93% 30.07 in 8.0 mi West 5.8 mph - N/A   Overcast
1:56 AM 61.0 °F 59.0 °F 93% 30.06 in 10.0 mi WNW 4.6 mph - N/A   Overcast
2:53 AM 60.8 °F 59.0 °F 94% 30.04 in 10.0 mi West 6.9 mph - N/A   Overcast
2:56 AM 61.0 °F 59.0 °F 93% 30.05 in 10.0 mi West 6.9 mph - N/A   Overcast
3:02 AM 62.6 °F 59.0 °F 88% 30.04 in 10.0 mi West 5.8 mph - N/A   Overcast
3:56 AM 61.0 °F 57.9 °F 90% 30.04 in 10.0 mi West 6.9 mph - N/A   Overcast
4:23 AM 60.8 °F 57.2 °F 88% 30.03 in 10.0 mi West 8.1 mph - N/A   Overcast
4:43 AM 60.8 °F 57.2 °F 88% 30.03 in 10.0 mi West 8.1 mph - N/A   Overcast
4:56 AM 61.0 °F 57.9 °F 90% 30.04 in 10.0 mi West 6.9 mph - N/A   Overcast
5:56 AM 60.1 °F 55.9 °F 86% 30.05 in 10.0 mi West 8.1 mph - N/A   Overcast
6:09 AM 60.8 °F 55.4 °F 82% 30.04 in 10.0 mi West 9.2 mph - N/A   Overcast
6:36 AM 60.8 °F 55.4 °F 82% 30.03 in 10.0 mi West 8.1 mph - N/A   Overcast
6:56 AM 60.1 °F 55.9 °F 86% 30.05 in 10.0 mi West 10.4 mph - N/A   Overcast
7:41 AM 60.8 °F 55.4 °F 82% 30.05 in 10.0 mi WNW 9.2 mph - 0.00 in Rain Light Rain
7:56 AM 60.1 °F 55.0 °F 83% 30.07 in 10.0 mi WNW 10.4 mph - 0.00 in   Overcast
8:14 AM 60.8 °F 55.4 °F 82% 30.06 in 10.0 mi WNW 8.1 mph - N/A   Overcast
8:29 AM 60.8 °F 55.4 °F 82% 30.06 in 10.0 mi WNW 9.2 mph - 0.00 in Rain Light Rain
8:48 AM 60.8 °F 55.4 °F 82% 30.07 in 10.0 mi NW 9.2 mph - 0.00 in   Overcast
8:56 AM 60.1 °F 54.0 °F 80% 30.09 in 10.0 mi WNW 9.2 mph - 0.00 in   Overcast
9:56 AM 61.0 °F 52.0 °F 72% 30.09 in 10.0 mi WNW 8.1 mph - N/A   Overcast
10:56 AM 61.0 °F 52.0 °F 72% 30.08 in 10.0 mi WNW 8.1 mph - N/A   Overcast
11:56 AM 63.0 °F 53.1 °F 70% 30.07 in 10.0 mi WNW 8.1 mph - N/A   Overcast
12:56 PM 64.0 °F 54.0 °F 70% 30.05 in 10.0 mi West 9.2 mph - N/A   Overcast
1:56 PM 66.9 °F 54.0 °F 63% 30.02 in 10.0 mi West 9.2 mph - N/A   Mostly Cloudy
2:06 PM 66.2 °F 53.6 °F 64% 30.00 in 10.0 mi WSW 6.9 mph - N/A   Scattered Clouds
2:56 PM 68.0 °F 54.0 °F 61% 30.00 in 10.0 mi WSW 5.8 mph - N/A   Clear
3:56 PM 69.1 °F 53.1 °F 57% 29.99 in 10.0 mi West 10.4 mph - N/A   Clear
4:56 PM 70.0 °F 53.1 °F 55% 29.98 in 10.0 mi West 9.2 mph - N/A   Clear
5:56 PM 69.1 °F 54.0 °F 58% 29.99 in 10.0 mi West 6.9 mph - N/A   Clear
6:56 PM 66.0 °F 53.1 °F 63% 30.01 in 10.0 mi West 6.9 mph - N/A   Clear
7:56 PM 66.9 °F 54.0 °F 63% 30.03 in 10.0 mi West 6.9 mph - N/A   Clear
8:56 PM 64.9 °F 55.0 °F 70% 30.06 in 10.0 mi WSW 5.8 mph - N/A   Clear
9:56 PM 63.0 °F 55.9 °F 78% 30.08 in 10.0 mi SW 4.6 mph - N/A   Clear
10:56 PM 62.1 °F 57.0 °F 84% 30.09 in 10.0 mi SW 5.8 mph - N/A   Clear
11:56 PM 63.0 °F 57.0 °F 81% 30.09 in 10.0 mi WSW 6.9 mph - N/A   Clear